Cedar Rapids, IA

3:44 AM CST on December 18, 2017 (GMT -0600)
The Eastern Iowa Airport

Weather History for KCID - March, 2014

Change the Weather History Date:

Friday, March 21, 2014

  Actual Average Record
Temperature  
Mean Temperature 44 °F 39 °F  
Max Temperature 58 °F 49 °F 85 °F (1938)
Min Temperature 30 °F 29 °F 1 °F (1960)
Degree Days  
Heating Degree Days 21 26  
Month to date heating degree days 767 642  
Since 1 July heating degree days 6806 5925  
Cooling Degree Days 0 0  
Month to date cooling degree days 0 0  
Year to date cooling degree days 0 0  
Moisture  
Dew Point 30 °F    
Average Humidity 64    
Maximum Humidity 85    
Minimum Humidity 43    
Precipitation  
Precipitation 0.00 in 0.08 in 0.73 in (1975)
Month to date precipitation 0.19 1.36  
Year to date precipitation 1.94 3.50  
Sea Level Pressure  
Sea Level Pressure 29.87 in    
Wind  
Wind Speed 16 mph (SSW)    
Max Wind Speed 32 mph    
Max Gust Speed 38 mph    
Visibility 10 miles    
Events      
T = Trace of Precipitation, MM = Missing Value Source: NWS Daily Summary

Daily Weather History Graph

Daily Weather History Graph

Search for Another Location

Airport or City:

Trip Planner

Search our weather history database for the weather conditions in past years. The results will help you decide how hot, cold, wet, or windy it might be!

Date:

Astronomy

Mar. 21, 2014 Rise Set
Actual Time 7:08 AM CDT 7:20 PM CDT
Civil Twilight 6:40 AM CDT 7:48 PM CDT
Nautical Twilight 6:08 AM CDT 8:20 PM CDT
Astronomical Twilight 5:34 AM CDT 8:54 PM CDT
Moon No Moon Rise 9:56 AM CDT (3/21)
Length of Visible Light 13h 07m
Length of Day
12h 11m
Waning Gibbous, 75% of the Moon is Illuminated
Mar 21
Waning Gibbous
Mar 23
Last Quarter
Mar 30
New
Apr 7
First Quarter
Apr 15
Full

Hourly Weather History & Observations

Time (CDT) Temp. Windchill Dew Point Humidity Pressure Visibility Wind Dir Wind Speed Gust Speed Precip Events Conditions
12:52 AM 32.0 °F 24.8 °F 24.1 °F 73% 29.96 in 10.0 mi East 8.1 mph - N/A   Clear
1:52 AM 30.9 °F 22.8 °F 24.1 °F 76% 29.94 in 10.0 mi East 9.2 mph - N/A   Clear
2:52 AM 32.0 °F 24.2 °F 25.0 °F 75% 29.91 in 10.0 mi East 9.2 mph - N/A   Clear
3:52 AM 30.9 °F 22.8 °F 25.0 °F 79% 29.89 in 10.0 mi ESE 9.2 mph - N/A   Clear
4:52 AM 30.0 °F 24.1 °F 25.0 °F 82% 29.87 in 10.0 mi ESE 5.8 mph - N/A   Clear
5:52 AM 30.9 °F 24.3 °F 26.1 °F 82% 29.88 in 10.0 mi SE 6.9 mph - N/A   Clear
6:52 AM 35.1 °F 27.4 °F 28.0 °F 76% 29.86 in 10.0 mi ESE 10.4 mph - N/A   Clear
7:52 AM 36.0 °F 28.0 °F 28.0 °F 73% 29.85 in 10.0 mi SE 11.5 mph - N/A   Clear
8:52 AM 39.0 °F 31.8 °F 28.9 °F 67% 29.84 in 10.0 mi SE 11.5 mph - N/A   Clear
9:52 AM 41.0 °F 34.3 °F 30.0 °F 65% 29.82 in 10.0 mi SE 11.5 mph - N/A   Clear
10:52 AM 46.0 °F 40.2 °F 32.0 °F 58% 29.80 in 10.0 mi SE 12.7 mph - N/A   Clear
11:52 AM 50.0 °F - 33.1 °F 52% 29.79 in 10.0 mi South 10.4 mph - N/A   Clear
12:52 PM 54.0 °F - 35.1 °F 49% 29.76 in 10.0 mi South 11.5 mph 18.4 mph N/A   Clear
1:28 PM 55.0 °F - 35.1 °F 47% 29.74 in 10.0 mi SW 13.8 mph - N/A   Clear
1:52 PM 57.0 °F - 35.1 °F 44% 29.75 in 10.0 mi West 16.1 mph 23.0 mph N/A   Clear
2:52 PM 55.9 °F - 35.1 °F 45% 29.76 in 10.0 mi WNW 19.6 mph 26.5 mph N/A   Partly Cloudy
3:52 PM 54.0 °F - 36.0 °F 51% 29.76 in 10.0 mi NW 23.0 mph - N/A   Overcast
4:52 PM 54.0 °F - 34.0 °F 47% 29.79 in 10.0 mi NW 20.7 mph - N/A   Scattered Clouds
5:52 PM 54.0 °F - 37.0 °F 53% 29.82 in 10.0 mi NW 12.7 mph - N/A   Mostly Cloudy
6:52 PM 46.0 °F 37.4 °F 36.0 °F 68% 29.87 in 10.0 mi NW 25.3 mph 34.5 mph N/A   Scattered Clouds
7:38 PM 39.9 °F 29.5 °F 32.0 °F 73% 29.90 in 10.0 mi NW 24.2 mph 33.4 mph N/A   Mostly Cloudy
7:52 PM 39.9 °F 28.4 °F 30.9 °F 70% 29.92 in 10.0 mi NW 29.9 mph 34.5 mph N/A   Overcast
8:52 PM 37.0 °F 26.4 °F 30.0 °F 76% 29.97 in 10.0 mi NW 20.7 mph - N/A   Overcast
9:52 PM 36.0 °F 23.7 °F 27.0 °F 70% 30.01 in 10.0 mi NW 26.5 mph 34.5 mph N/A   Overcast
10:52 PM 35.1 °F 23.8 °F 27.0 °F 72% 30.04 in 10.0 mi NW 20.7 mph - N/A   Overcast
11:52 PM 34.0 °F 22.7 °F 25.0 °F 70% 30.05 in 10.0 mi NW 19.6 mph 27.6 mph N/A   Overcast